Temp
-13 -12 -12 -13 -13 -13 -12 -12 -12 -13 -13 -13 -13 -12 -12 -12 -11 -11 -11 -11 -11 -11 -11 -12 -12 -12 -12 -12 -12 -12 -12 -12 -12 -12 -12 -13 -13 -13 -13 -13 -13 -12 -12 -12
-13 -13 -13 -13 -13 -13 -13 -13 -13 -13 -14 -13 -13 -12 -12 -12 -11 -11 -11 -11 -11 -11 -11 -12 -12 -12 -13 -12 -12 -12 -12 -12 -12 -12 -12 -12 -12 -13 -13 -13 -12 -12 -12 -12
-13 -13 -13 -13 -13 -13 -13 -13 -13 -14 -14 -13 -13 -12 -12 -12 -12 -12 -11 -11 -11 -11 -11 -11 -12 -12 -13 -13 -12 -12 -12 -12 -12 -12 -12 -12 -12 -12 -12 -12 -12 -12 -12 -12
-14 -14 -14 -14 -14 -14 -14 -14 -14 -14 -14 -13 -14 -11 -12 -12 -12 -12 -11 -11 -11 -11 -11 -11 -11 -12 -13 -13 -12 -12 -12 -12 -12 -12 -12 -12 -12 -12 -12 -12 -12 -12 -12 -12
-15 -15 -15 -14 -14 -15 -14 -15 -15 -15 -14 -14 -13 -13 -10 -12 -12 -12 -11 -12 -12 -12 -11 -11 -12 -12 -13 -13 -13 -12 -12 -12 -12 -12 -12 -12 -12 -12 -12 -12 -12 -12 -12 -12
-15 -15 -15 -15 -15 -15 -16 -16 -16 -16 -16 -14 -13 -14 -11 -12 -12 -12 -12 -12 -12 -12 -12 -12 -12 -12 -13 -13 -13 -12 -12 -12 -12 -12 -12 -12 -12 -12 -12 -13 -12 -12 -12 -12
-15 -15 -15 -15 -16 -17 -17 -18 -18 -18 -17 -15 -14 -14 -12 -12 -12 -12 -13 -13 -12 -12 -12 -12 -12 -12 -13 -13 -13 -13 -12 -12 -12 -13 -13 -12 -12 -12 -12 -12 -12 -12 -12 -12
-15 -15 -16 -17 -18 -19 -19 -21 -20 -20 -19 -18 -18 -14 -12 -13 -14 -13 -14 -13 -12 -12 -12 -12 -13 -13 -13 -14 -13 -13 -13 -13 -13 -13 -13 -12 -12 -12 -12 -12 -12 -12 -12 -12
-16 -17 -18 -19 -19 -20 -20 -21 -21 -21 -21 -21 -20 -17 -15 -14 -15 -15 -15 -14 -13 -13 -13 -13 -14 -13 -14 -14 -13 -13 -13 -13 -13 -13 -13 -13 -12 -12 -12 -12 -12 -12 -12 -13
-17 -17 -18 -18 -19 -19 -20 -21 -21 -22 -22 -21 -20 -20 -19 -17 -18 -16 -15 -14 -14 -14 -14 -14 -14 -14 -14 -14 -14 -13 -13 -13 -13 -13 -13 -13 -12 -12 -12 -12 -12 -13 -13 -13
-17 -17 -17 -18 -19 -19 -19 -20 -21 -22 -22 -21 -20 -20 -19 -18 -18 -17 -16 -15 -15 -14 -14 -14 -14 -14 -14 -14 -13 -13 -13 -13 -13 -13 -13 -13 -13 -13 -13 -13 -13 -13 -14 -14
-17 -17 -17 -18 -19 -19 -20 -20 -21 -21 -21 -21 -21 -20 -19 -19 -18 -18 -17 -15 -15 -15 -14 -14 -14 -14 -14 -14 -13 -13 -13 -13 -13 -13 -13 -13 -13 -13 -13 -13 -14 -14 -14 -15
-17 -17 -18 -18 -19 -19 -19 -20 -20 -21 -21 -20 -21 -19 -20 -20 -18 -17 -16 -15 -15 -14 -14 -14 -14 -14 -14 -13 -13 -13 -14 -14 -14 -13 -13 -13 -13 -13 -13 -14 -14 -15 -15 -15
-17 -18 -18 -18 -19 -19 -19 -20 -20 -21 -21 -20 -19 -19 -20 -19 -18 -17 -17 -15 -15 -15 -15 -14 -14 -14 -14 -13 -13 -14 -14 -14 -14 -13 -13 -13 -13 -14 -14 -15 -15 -15 -15 -15
-18 -18 -18 -17 -17 -17 -18 -19 -19 -20 -20 -19 -20 -19 -21 -18 -17 -17 -16 -15 -15 -15 -15 -15 -15 -14 -14 -14 -14 -14 -14 -14 -14 -14 -14 -14 -14 -14 -14 -15 -15 -15 -16 -16
-17 -17 -16 -16 -16 -17 -17 -17 -17 -18 -18 -18 -19 -19 -18 -17 -16 -17 -16 -15 -15 -15 -15 -15 -15 -14 -14 -14 -14 -14 -14 -14 -14 -14 -14 -14 -14 -15 -15 -15 -15 -16 -16 -16
-17 -16 -16 -16 -16 -16 -16 -16 -17 -17 -17 -17 -17 -17 -16 -16 -16 -15 -15 -15 -15 -15 -15 -15 -15 -15 -15 -14 -14 -14 -14 -14 -14 -14 -14 -15 -15 -15 -15 -15 -16 -16 -16 -17
-17 -16 -16 -16 -16 -16 -16 -16 -16 -16 -16 -16 -16 -16 -16 -15 -15 -14 -14 -14 -14 -14 -15 -15 -15 -15 -14 -14 -14 -14 -14 -14 -14 -14 -15 -15 -15 -15 -16 -16 -16 -16 -17 -17
-16 -16 -16 -16 -16 -15 -15 -15 -15 -15 -15 -14 -14 -14 -15 -14 -14 -14 -14 -14 -14 -14 -15 -15 -15 -15 -15 -15 -15 -15 -15 -15 -15 -15 -15 -15 -16 -16 -16 -16 -17 -17 -17 -17
-16 -16 -16 -16 -16 -16 -15 -15 -15 -15 -15 -15 -15 -15 -15 -15 -15 -15 -15 -15 -15 -15 -15 -15 -15 -15 -15 -15 -15 -15 -15 -15 -15 -15 -16 -16 -16 -16 -17 -17 -17 -17 -17 -17
-16 -16 -15 -15 -15 -15 -15 -15 -15 -15 -15 -15 -15 -15 -15 -15 -15 -15 -15 -15 -15 -14 -15 -15 -15 -15 -15 -15 -15 -15 -15 -16 -16 -16 -16 -16 -17 -17 -17 -17 -17 -17 -17 -18
-16 -16 -15 -15 -15 -15 -15 -15 -15 -15 -15 -15 -15 -15 -15 -15 -15 -15 -15 -15 -15 -16 -16 -16 -16 -15 -15 -15 -16 -16 -16 -16 -16 -16 -17 -17 -17 -17 -17 -17 -17 -17 -18 -18
-16 -16 -15 -15 -15 -15 -15 -15 -15 -15 -15 -16 -16 -15 -15 -15 -15 -15 -15 -15 -16 -16 -16 -16 -16 -16 -16 -16 -16 -16 -16 -16 -16 -16 -17 -17 -17 -17 -17 -17 -18 -18 -18 -18
-16 -16 -16 -16 -16 -16 -15 -15 -16 -16 -16 -16 -16 -16 -16 -16 -16 -16 -16 -16 -16 -16 -16 -16 -16 -16 -16 -16 -16 -16 -16 -16 -17 -17 -17 -17 -17 -17 -18 -18 -18 -18 -19 -19
-16 -16 -16 -16 -16 -16 -16 -16 -16 -16 -16 -16 -16 -16 -16 -16 -16 -16 -16 -17 -17 -17 -17 -17 -16 -16 -16 -16 -16 -16 -16 -16 -17 -17 -17 -17 -18 -18 -18 -18 -19 -19 -19 -19
-16 -16 -15 -16 -16 -16 -16 -16 -16 -16 -16 -16 -16 -16 -16 -16 -17 -17 -17 -17 -17 -17 -17 -16 -16 -16 -16 -16 -16 -16 -17 -17 -17 -17 -18 -18 -18 -18 -19 -19 -19 -19 -19 -19
Height
5683 5686 5688 5687 5685 5685 5685 5685 5686 5686 5688 5692 5693 5694 5701 5705 5708 5714 5718 5722 5724 5728 5730 5733 5736 5741 5746 5748 5750 5750 5751 5754 5756 5757 5758 5758 5759 5762 5764 5765 5765 5765 5764 5763
5676 5679 5679 5677 5676 5675 5676 5674 5675 5677 5677 5677 5682 5682 5686 5691 5699 5705 5709 5713 5716 5719 5721 5724 5728 5732 5736 5740 5743 5744 5744 5746 5749 5750 5751 5751 5754 5755 5757 5758 5758 5757 5757 5756
5666 5670 5668 5667 5666 5664 5664 5664 5663 5664 5663 5664 5664 5668 5674 5684 5685 5693 5699 5703 5707 5711 5712 5713 5719 5724 5728 5731 5734 5737 5738 5741 5742 5744 5745 5746 5747 5749 5749 5750 5750 5750 5749 5748
5657 5659 5656 5655 5654 5651 5651 5650 5649 5649 5648 5651 5653 5649 5663 5670 5677 5683 5689 5693 5697 5701 5704 5704 5710 5715 5720 5723 5725 5729 5731 5734 5735 5737 5738 5740 5741 5742 5742 5742 5742 5742 5742 5741
5649 5647 5644 5642 5642 5635 5638 5636 5634 5635 5634 5635 5643 5636 5645 5660 5668 5673 5678 5683 5686 5692 5695 5696 5702 5706 5710 5714 5719 5721 5723 5726 5728 5730 5732 5733 5734 5734 5734 5734 5735 5735 5735 5733
5637 5634 5632 5631 5627 5622 5620 5621 5619 5618 5619 5619 5627 5624 5636 5646 5659 5664 5665 5669 5675 5680 5684 5687 5693 5698 5702 5706 5711 5714 5716 5719 5721 5723 5725 5726 5726 5726 5726 5727 5728 5728 5727 5725
5625 5624 5619 5616 5612 5607 5606 5606 5605 5602 5601 5604 5610 5611 5626 5637 5643 5648 5652 5655 5662 5667 5671 5676 5683 5689 5694 5699 5704 5707 5709 5712 5714 5716 5718 5719 5718 5719 5719 5719 5720 5719 5718 5716
5611 5609 5602 5601 5596 5593 5590 5592 5592 5587 5587 5589 5594 5593 5611 5623 5625 5631 5637 5641 5647 5654 5660 5666 5672 5679 5685 5690 5695 5699 5702 5704 5707 5709 5711 5712 5712 5711 5712 5712 5712 5711 5709 5707
5600 5595 5590 5588 5584 5583 5582 5580 5587 5579 5578 5575 5578 5585 5594 5601 5611 5613 5623 5630 5634 5640 5647 5654 5662 5670 5676 5682 5688 5691 5694 5697 5700 5702 5704 5705 5705 5704 5704 5704 5704 5703 5701 5698
5595 5590 5589 5585 5582 5581 5576 5575 5574 5573 5570 5566 5571 5575 5582 5588 5592 5599 5610 5618 5622 5630 5637 5645 5654 5661 5669 5673 5679 5684 5688 5690 5693 5695 5697 5698 5697 5696 5696 5696 5696 5694 5692 5689
5588 5586 5586 5581 5579 5575 5569 5566 5565 5563 5561 5559 5563 5569 5574 5576 5581 5589 5598 5605 5612 5620 5629 5639 5649 5656 5663 5667 5672 5677 5681 5684 5686 5688 5689 5690 5689 5689 5688 5688 5688 5686 5683 5680
5583 5579 5578 5575 5571 5566 5562 5557 5553 5551 5552 5554 5554 5558 5566 5569 5575 5581 5589 5598 5607 5616 5624 5633 5641 5649 5656 5661 5666 5670 5674 5677 5678 5680 5682 5682 5682 5681 5681 5681 5679 5677 5674 5671
5581 5576 5571 5566 5563 5558 5552 5551 5545 5542 5543 5545 5545 5545 5559 5563 5569 5576 5584 5593 5604 5610 5618 5628 5635 5642 5650 5656 5660 5664 5667 5670 5671 5673 5674 5675 5674 5674 5674 5673 5671 5669 5666 5662
5575 5571 5566 5558 5552 5547 5539 5539 5539 5537 5535 5544 5536 5546 5556 5558 5565 5572 5580 5588 5598 5607 5613 5622 5631 5639 5645 5650 5654 5658 5661 5664 5665 5667 5667 5668 5668 5667 5666 5665 5663 5660 5656 5652
5572 5567 5561 5554 5548 5542 5536 5534 5533 5533 5535 5534 5542 5542 5552 5554 5561 5569 5579 5585 5594 5603 5612 5620 5629 5635 5641 5645 5649 5653 5656 5658 5659 5660 5661 5661 5660 5660 5659 5657 5654 5651 5647 5642
5570 5566 5561 5555 5551 5547 5542 5538 5536 5536 5538 5541 5541 5543 5544 5552 5561 5568 5578 5586 5595 5603 5610 5617 5624 5630 5636 5640 5644 5647 5650 5651 5653 5654 5654 5654 5654 5653 5651 5648 5645 5641 5637 5631
5571 5567 5563 5559 5555 5552 5550 5547 5545 5544 5545 5546 5546 5547 5549 5555 5555 5566 5572 5586 5594 5599 5609 5613 5620 5627 5632 5636 5639 5642 5644 5646 5647 5648 5648 5647 5646 5645 5642 5639 5636 5631 5626 5621
5571 5568 5564 5562 5560 5557 5553 5550 5551 5550 5550 5549 5550 5552 5556 5560 5566 5573 5580 5588 5596 5601 5608 5614 5620 5624 5628 5632 5635 5638 5639 5640 5641 5642 5641 5640 5639 5637 5634 5630 5626 5621 5616 5610
5573 5570 5568 5566 5564 5562 5560 5556 5556 5554 5556 5555 5558 5561 5565 5570 5575 5582 5588 5594 5599 5603 5609 5613 5617 5622 5626 5629 5631 5633 5634 5635 5635 5635 5634 5633 5631 5628 5625 5621 5616 5611 5605 5599
5575 5573 5572 5570 5569 5568 5567 5565 5564 5563 5564 5567 5570 5573 5576 5579 5583 5588 5593 5597 5601 5606 5610 5611 5615 5620 5623 5626 5627 5628 5629 5629 5628 5628 5626 5625 5623 5620 5616 5611 5606 5601 5594 5587
5575 5575 5574 5572 5571 5573 5572 5572 5572 5574 5576 5574 5576 5578 5580 5584 5587 5590 5594 5597 5601 5605 5607 5609 5613 5617 5619 5621 5622 5622 5622 5622 5621 5621 5619 5617 5614 5610 5606 5601 5596 5590 5583 5576
5575 5575 5575 5574 5573 5575 5575 5577 5578 5578 5578 5580 5582 5583 5585 5588 5590 5592 5595 5598 5600 5601 5603 5607 5610 5613 5614 5616 5616 5616 5617 5616 5615 5614 5611 5609 5605 5601 5596 5591 5586 5579 5572 5565
5575 5576 5575 5576 5574 5572 5573 5574 5577 5579 5580 5581 5582 5585 5586 5588 5590 5592 5592 5595 5595 5599 5603 5605 5607 5608 5610 5611 5611 5611 5611 5609 5608 5606 5603 5600 5596 5591 5587 5581 5575 5569 5562 5553
5571 5573 5574 5575 5576 5574 5573 5573 5574 5575 5578 5581 5582 5584 5585 5587 5588 5589 5590 5593 5596 5598 5601 5602 5604 5605 5606 5606 5606 5605 5604 5603 5601 5598 5595 5591 5587 5582 5577 5571 5565 5557 5550 5542
5568 5570 5570 5572 5573 5575 5575 5576 5577 5577 5579 5580 5581 5582 5584 5585 5586 5588 5591 5593 5595 5597 5598 5599 5600 5601 5601 5601 5601 5599 5598 5595 5593 5590 5586 5582 5578 5572 5567 5560 5554 5546 5539 5531
5563 5565 5568 5572 5573 5574 5576 5577 5578 5578 5579 5580 5581 5582 5583 5584 5586 5588 5590 5592 5593 5594 5595 5596 5597 5597 5597 5596 5594 5592 5590 5588 5585 5581 5578 5573 5568 5563 5557 5550 5543 5535 5527 5517
Wind_Speed
29 32 32 33 36 39 42 44 44 42 46 50 50 51 49 50 50 47 44 41 39 37 36 38 39 38 39 36 32 31 33 30 27 29 28 29 30 31 29 27 28 29 29 31
33 34 36 39 41 43 44 46 48 47 45 48 53 55 53 52 50 48 47 45 41 39 39 40 37 36 40 38 33 32 33 32 27 29 28 30 29 30 31 31 31 30 32 33
41 40 41 42 44 46 46 48 50 51 50 51 52 54 57 53 53 50 49 48 45 41 42 43 38 37 38 40 36 34 34 35 31 28 29 29 27 28 32 34 34 34 34 35
43 41 44 46 49 51 51 52 53 55 56 53 51 57 54 56 54 52 51 52 51 47 44 46 40 39 37 41 39 35 35 35 36 30 28 29 29 29 30 32 34 35 36 37
42 44 47 50 50 54 53 53 54 56 58 58 53 59 54 50 51 49 48 50 51 49 48 49 44 40 41 42 40 36 36 35 36 34 31 30 30 30 30 31 33 35 38 39
44 48 50 52 52 55 55 55 57 58 59 64 60 62 55 49 43 45 48 49 49 48 47 45 44 40 42 41 40 38 37 35 32 32 31 31 29 29 31 32 34 36 39 41
48 50 54 55 54 55 54 53 54 58 62 66 64 64 58 49 42 44 44 52 50 50 50 47 42 41 40 39 40 38 39 36 32 31 32 31 29 30 31 33 35 36 40 42
45 45 46 46 45 45 50 46 47 50 57 61 58 66 58 52 48 44 38 44 47 49 50 48 42 42 41 42 40 40 40 36 34 32 32 32 31 30 32 34 36 39 41 43
24 19 21 18 24 29 36 45 41 41 44 48 54 62 61 58 47 46 41 41 45 47 47 44 43 43 42 41 39 42 39 37 35 34 33 33 32 31 34 36 38 41 42 42
23 25 22 26 28 29 31 29 34 44 43 44 43 42 43 47 40 43 39 43 45 42 41 42 43 44 41 41 40 41 39 36 34 34 33 33 33 33 35 37 39 40 39 41
31 33 30 31 31 32 35 34 35 35 42 46 41 36 26 31 32 36 38 44 42 43 35 37 40 41 41 41 40 39 38 35 33 33 33 34 35 34 33 35 37 37 40 42
31 36 32 33 30 30 33 35 34 38 41 44 46 37 29 27 25 29 36 42 39 34 30 38 37 39 43 39 38 38 36 33 32 32 33 34 34 32 32 34 36 39 41 41
26 31 37 35 33 33 33 34 32 35 34 35 34 21 24 20 22 25 33 37 32 32 34 38 41 41 40 38 37 38 35 34 32 32 33 32 32 32 33 35 37 38 40 42
30 29 30 35 36 35 31 27 23 24 34 25 22 15 21 23 23 28 31 34 37 33 37 40 41 39 36 36 36 36 35 33 31 32 31 31 32 33 34 35 36 38 41 44
22 21 22 16 16 26 21 12 13 7 3 16 12 22 20 31 27 29 31 35 39 37 36 35 34 35 36 33 32 33 31 30 29 29 30 31 31 32 33 34 36 39 43 47
16 13 16 16 20 23 23 20 15 7 11 11 18 26 26 21 27 30 30 36 38 37 34 30 29 31 31 31 31 29 28 27 28 28 28 28 30 31 32 35 39 42 46 48
9 9 15 15 15 12 11 9 11 21 14 15 16 12 16 15 24 35 33 41 36 33 29 25 26 27 28 26 25 25 24 24 23 24 25 27 28 30 34 38 41 45 47 50
6 9 11 16 14 14 18 3 2 4 11 6 7 23 28 27 28 29 26 26 26 25 23 21 21 21 20 20 19 19 19 20 21 22 24 27 30 34 37 40 44 47 50 51
9 11 13 15 15 18 19 26 20 13 12 20 23 25 20 23 23 18 18 18 19 20 21 18 15 13 13 14 15 16 17 19 21 24 27 30 33 36 38 43 46 48 50 53
3 5 8 9 12 14 16 16 19 23 27 25 25 23 19 20 22 19 17 18 19 16 13 9 11 14 14 16 16 17 19 22 25 27 29 32 35 38 42 44 46 49 51 54
4 5 4 6 7 9 11 12 12 9 15 17 15 17 14 16 16 15 14 14 13 12 9 8 11 14 16 17 19 20 22 24 26 28 31 35 37 39 42 44 47 49 53 56
6 4 2 2 3 4 3 7 8 9 7 9 10 13 13 12 12 15 19 14 14 8 7 10 13 16 18 19 20 21 23 25 28 31 33 36 38 40 42 44 47 51 51 51
13 9 7 5 5 6 4 2 4 8 10 10 10 13 14 14 14 15 15 11 7 10 11 13 13 15 16 18 19 21 25 28 29 32 34 36 37 39 42 47 48 48 49 50
17 14 12 9 8 6 4 5 5 2 1 4 7 8 12 14 14 11 9 9 9 10 12 13 14 15 17 20 23 25 26 29 31 32 33 35 38 42 44 45 46 46 49 53
16 17 15 14 11 9 4 3 2 3 3 2 3 5 7 7 7 8 9 11 12 12 13 14 16 18 19 20 23 25 27 30 31 32 33 37 40 42 42 43 44 48 52 55
19 20 19 16 14 11 8 8 6 4 5 6 7 5 5 6 8 9 10 11 13 14 14 13 15 17 19 22 25 28 28 28 30 32 36 38 40 40 40 43 47 50 55 60
Wind_Direction
271 275 276 278 277 276 275 274 272 268 261 252 252 251 248 245 248 247 247 248 249 248 250 244 247 248 245 248 250 252 247 252 249 244 250 249 246 245 250 256 262 265 267 270
273 276 277 275 275 274 271 271 273 270 265 262 251 249 248 244 243 245 247 248 245 245 249 248 250 244 238 244 248 251 248 250 251 246 250 253 255 251 253 257 263 267 268 274
274 276 274 276 277 275 272 271 269 269 265 262 259 252 247 246 244 243 245 248 247 243 248 249 246 245 240 239 244 248 251 247 250 252 251 256 258 254 253 256 262 267 271 276
275 279 278 276 275 276 273 271 268 266 264 261 258 261 246 245 246 246 245 247 247 245 245 249 247 243 241 239 240 246 251 249 247 251 252 252 255 257 256 258 261 267 271 276
278 277 277 277 277 275 275 272 269 267 265 263 260 258 257 245 246 248 249 247 247 247 247 249 246 237 237 238 239 244 248 250 248 249 253 259 257 257 259 260 264 268 274 277
278 278 278 278 276 276 273 269 267 264 262 260 258 258 251 255 248 245 248 246 244 244 245 246 247 235 236 238 235 241 244 247 249 251 253 257 255 258 263 264 267 270 274 277
282 283 282 279 277 273 271 268 265 263 260 262 259 256 254 253 251 246 241 246 244 244 244 243 242 235 232 236 234 239 244 244 249 249 250 254 258 261 265 267 269 272 274 278
291 287 281 276 270 263 260 257 258 261 262 261 259 254 250 250 250 241 236 238 240 239 243 242 231 227 224 230 230 236 242 242 246 250 251 254 259 263 267 268 270 272 276 282
300 298 285 289 283 281 274 263 256 258 260 263 260 254 252 251 247 245 234 233 235 235 237 232 225 222 218 224 227 235 240 242 246 250 253 255 259 262 265 269 272 276 280 285
301 299 307 300 298 297 290 279 263 254 258 262 263 268 269 259 251 240 230 222 227 228 228 225 218 216 215 220 226 235 239 242 247 252 255 257 261 262 266 271 275 279 285 288
311 299 295 295 295 287 282 278 266 260 251 259 263 262 255 243 231 221 213 213 219 218 219 217 215 213 215 220 225 233 240 242 246 250 254 258 263 266 269 273 279 285 287 290
310 302 296 289 283 280 282 280 267 260 255 257 264 250 240 242 224 209 205 207 212 211 208 204 207 207 216 221 226 232 237 241 243 249 255 261 265 267 273 279 284 286 288 290
304 298 299 304 302 301 292 297 291 261 253 258 265 256 222 217 213 194 200 202 201 200 198 201 202 207 214 221 230 236 236 238 243 250 256 261 266 272 277 282 284 286 289 292
305 305 314 315 318 311 313 306 285 285 262 263 236 207 183 201 200 189 194 188 186 193 191 197 205 211 214 221 231 233 234 238 244 251 256 263 269 274 278 282 286 289 292 295
309 326 337 359 357 359 345 332 270 259 221 185 186 185 191 178 187 183 179 190 186 187 194 200 210 213 219 226 229 230 232 239 246 253 259 264 271 277 281 284 289 292 296 297
331 352 22 24 16 3 25 36 46 82 163 163 189 185 196 181 153 197 161 176 182 190 193 196 204 211 214 217 220 226 233 240 248 255 262 270 275 279 284 290 293 295 297 299
345 18 27 21 8 11 26 57 115 138 142 156 140 129 134 164 130 161 157 173 178 174 179 186 194 202 207 213 222 229 235 244 254 263 268 274 280 286 290 292 295 296 299 300
23 22 21 51 31 25 21 64 109 360 48 103 152 136 125 126 133 138 145 154 166 169 172 186 197 203 209 217 226 235 243 252 260 269 275 281 285 288 290 294 296 298 300 302
66 45 34 37 36 58 74 70 69 88 98 126 136 141 149 139 137 137 143 157 169 172 175 181 189 202 215 228 238 245 254 262 270 276 279 283 286 290 293 295 297 300 302 304
69 46 48 32 48 44 63 71 68 95 110 114 123 133 133 137 140 146 155 171 166 177 186 195 211 222 244 247 249 258 267 272 274 278 282 286 289 292 295 299 301 301 303 304
131 103 66 25 37 70 71 74 80 92 111 125 120 139 135 148 153 150 163 177 200 207 203 219 235 247 253 254 259 267 270 275 280 283 286 288 291 294 298 299 301 302 303 306
207 209 232 336 6 11 68 122 125 141 130 138 157 160 166 168 180 182 193 203 202 197 228 247 252 256 261 264 266 269 275 278 282 284 287 291 295 298 300 300 302 304 306 308
214 215 228 273 295 319 347 341 142 144 148 155 185 192 200 207 211 214 209 216 232 245 251 255 257 256 258 262 268 274 279 283 284 288 292 295 298 299 301 303 305 307 309 310
229 232 239 243 234 239 297 314 312 307 140 178 179 190 205 209 209 208 206 218 225 236 242 247 253 259 265 271 278 281 284 287 290 293 297 298 300 303 304 307 309 309 310 310
238 238 241 254 249 233 233 227 200 177 177 222 221 204 212 220 220 218 221 226 233 242 251 258 265 270 274 279 283 286 289 293 296 296 299 301 304 306 308 308 308 310 310 311
237 238 241 235 226 226 243 233 222 220 216 223 237 221 226 219 223 224 230 232 248 252 255 260 269 276 282 286 290 291 293 295 297 301 303 305 306 307 308 309 311 312 314 317